Preview of NWS' New Version of Forecast
This preview is not operational and should not be used for support decisions.

Regional Weather Roundup (RWR)

Issued by Gray - Portland, ME (GYX)

                            
551 
ASUS41 KGYX 261805
RWRGYX
WEATHER ROUNDUP FOR MAINE AND NEW HAMPSHIRE
NATIONAL WEATHER SERVICE GRAY ME
200 PM EDT TUE MAR 26 2019

MEZ002-005-006-010-012-015-018-020-021-024-026-027-029-261900-
MAINE
  
CITY           SKY/WX    TMP DP  RH WIND       PRES   REMARKS
PORTLAND       FAIR      38   3  23 VRB5      30.24F                  
6HR MIN TEMP:  28; 6HR MAX TEMP:  38;                                

SANFORD        FAIR      38   4  24 W15       30.23F                  
BAR HARBOR     FAIR      32   4  30 NW10G16   30.20F                  
WISCASSET      FAIR      35   2  24 MISG      30.24F                  
6HR MIN TEMP:  27; 6HR MAX TEMP:  36;                                

ROCKLAND       FAIR      34   2  25 NW10G18   30.22F                  
FRYEBURG       FAIR      35   2  24 W10       30.23F                  
6HR MIN TEMP:  24; 6HR MAX TEMP:  35; 6HR PCP: TRACE;                

LEWISTONAUBURN FAIR      33   1  25 N10       30.23F                  
AUGUSTA        FAIR      32   1  26 W12       30.22                   
6HR MIN TEMP:  23; 6HR MAX TEMP:  33;                                

WATERVILLE     FAIR      31   4  31 VRB7      30.18F                  
BANGOR         FAIR      33   1  25 W10       30.20F                  
6HR MIN TEMP:  24; 6HR MAX TEMP:  33;                                

GREENVILLE       N/A     26  -2  29 NW14G22   30.09F WCI  14          
6HR MIN TEMP:  13; 6HR MAX TEMP:  27;                                

MILLINOCKET    FAIR      29   1  30 W9G17     30.17F                  
6HR MIN TEMP:  19; 6HR MAX TEMP:  29;                                

HOULTON        FAIR      25   3  38 W9        30.11F                  
6HR MIN TEMP:  15; 6HR MAX TEMP:  25;                                

PRESQUE ISLE   FAIR      26   2  35 W12G20    30.11F WCI  16          
6HR MIN TEMP:  12; 6HR MAX TEMP:  26;                                

FRENCHVILLE    FAIR      23  -1  35 NW14G21   30.06F WCI  11          
6HR MIN TEMP:   9; 6HR MAX TEMP:  23;                                

CARIBOU        FAIR      25   0  33 W10G18    30.09F WCI  15          
6HR MIN TEMP:  11; 6HR MAX TEMP:  26;                                

$$

NHZ002-005-008-009-011-012-014-261900-
NEW HAMPSHIRE
  
CITY           SKY/WX    TMP DP  RH WIND       PRES   REMARKS
PORTSMOUTH     SUNNY     41  -1  17 NW10G21   30.23F                  
ROCHESTER      FAIR      38   2  22 NW8       30.23F                  
6HR MIN TEMP:  25; 6HR MAX TEMP:  39;                                

NASHUA         FAIR      40  -1  18 NW15G21   30.26F                  
MANCHESTER     FAIR      40  -2  17 NW16G22   30.25S                  
6HR MIN TEMP:  28; 6HR MAX TEMP:  40;                                

CONCORD        FAIR      38   6  26 W12G22    30.26F                  
6HR MIN TEMP:  22; 6HR MAX TEMP:  38;                                

PLYMOUTH       FAIR      33   1  24 NW8G18    30.26F                  
BERLIN         FAIR      30   1  29 VRB6      30.20F                  
6HR MIN TEMP:  19; 6HR MAX TEMP:  30;                                

WHITEFIELD     FAIR      32  -1  24 CALM      30.23F                  
6HR MIN TEMP:   8; 6HR MAX TEMP:  32;                                

JAFFREY        NOT AVBL                                               
KEENE          FAIR      37   1  22 N12G18    30.27S                  
LEBANON        FAIR      37   6  27 N10       30.27F                  
6HR MIN TEMP:  20; 6HR MAX TEMP:  37;                                

MT WASHINGTON  SUNNY      1  -6  71 NW41G47     N/A  WCI -27          
6HR MIN TEMP:  -5; 6HR MAX TEMP:   2;                                

$$

VTZ005-007-008-261900-
VERMONT
  
CITY           SKY/WX    TMP DP  RH WIND       PRES   REMARKS
ST JOHNSBURY     N/A     31   2  29 MISG      30.25F                  
MONTPELIER     FAIR      27   5  39 NW14G20   30.30S WCI  16          
BURLINGTON     FAIR      32   4  30 NW6       30.33F                  
$$

MAZ007-012-024-CTZ003-RIZ002-NYZ038-NYZ072-261900-
SOUTHERN NEW ENGLAND AND NY
  
CITY           SKY/WX    TMP DP  RH WIND       PRES   REMARKS
BOSTON         FAIR      43  -1  16 N9        30.25F                  
WORCESTER      FAIR      37   3  24 N13G24    30.21F                  
NANTUCKET      FAIR      42  14  32 N18G26    30.22F                  
PROVIDENCE     FAIR      44   4  19 N9G17     30.24F                  
HARTFORD       FAIR      45  -2  14 NW6       30.26F                  
ALBANY         FAIR      43  -1  16 N12       30.31F                  
NEW YORK CITY  FAIR      45   4  18 N13G22    30.28F                  
$$

ANZ081-ANZ082-ANZ150-NHZ014-MEZ023>029-261900-
COASTAL MARINE OBSERVATIONS
  
STATION/POSITION TIME  TEMP    WIND        PRES    WAVE
                       AIR SEA DIR/SP/G            HT/PER
                 (UTC) (F)     (DEG/KT/KT) (MB)    (FT/S)
MOUNT DESERT ROC 1700   29     300/ 17/ 19 1023.2R
MATINICUS ROCK   1700   32     340/ 13/ 14 1023.3R
ISLE OF SHOALS   1700   33      60/  6/  7 1024.1F
CASHES LEDGE BUO 1750   35 39              1024.2F   3/ 4
$$

.............KEY..............
   WCI - WIND CHILL
   TC  - TEMPERATURE IN CELSIUS
   VSB - VISIBILITY IN MILES
   HX  - HEAT INDEX
   FAIR- INDICATES FEW OR NO CLOUDS BELOW 12,000 FT, WITH NO 
         SIGNIFICANT WEATHER AND/OR OBSTRUCTIONS TO VISIBILITY.